Location: Unspecified
(49.9820°N, 20.4363°E)
Time: 05:01:28
(UTC+02:00)

Vanguard 3 - Pass Details

Date: 17 May 2026
Orbit: 507 x 3204 km, 33.3° (Epoch: 6 June)

Event Time Altitude Azimuth Distance (km) Brightness Sun altitude
Rises 13:52:37 0° 230° (SW) 6,488 12.3 55.7°
Reaches altitude 10° 13:57:00 10° 224° (SW) 5,727 12.2 55.3°
Maximum altitude 14:13:24 41° 163° (SSE) 4,119 11.6 53.7°
Drops below altitude 10° 14:29:27 10° 102° (ESE) 5,630 11.3 51.9°
Sets 14:33:42 0° 96° (E) 6,376 11.5 51.4°
